SL-14 R/B               
1 17567U 87024B   22143.53121156  .00000635  00000+0  73365-4 0  9994
2 17567  82.5268 312.7995 0019607 158.7631 201.4403 14.83928313882496
COSMOS 1833             
1 17589U 87027A   22143.29581143 -.00000044  00000+0  20317-5 0  9995
2 17589  70.9154 359.8036 0024914 135.7434 224.5685 14.12891968814474
SL-16 R/B               
1 17590U 87027B   22143.51542351  .00000319  00000+0  18320-3 0  9993
2 17590  71.0025 316.5675 0003031  67.2795 292.8649 14.16824709819027
SL-14 R/B               
1 17912U 87038B   22143.50836985  .00000514  00000+0  59858-4 0  9990
2 17912  82.5004 160.0151 0021506  60.4746 299.8610 14.83201262873626
COSMOS 1844             
1 17973U 87041A   22143.24713805 -.00000178  00000+0 -67460-4 0  9993
2 17973  70.9001  77.5026 0033283 300.9947  58.7906 14.14155693807553
SL-14 R/B               
1 18153U 87055B   22143.45362265  .00000456  00000+0  52475-4 0  9999
2 18153  82.5023 213.1397 0019990 268.8342  91.0582 14.83452530864296
COSMOS 1867             
1 18187U 87060A   22143.54856087 -.00000040  00000+0  22865-4 0  9992
2 18187  65.0109 227.3385 0018585 259.0325 100.8668 14.31144693821546
COSMOS 1892             
1 18421U 87088A   22143.51060710  .00008076  00000+0  38080-3 0  9991
2 18421  82.4976 295.0716 0015457 132.2237 228.0312 15.19228701891491
SL-14 R/B               
1 18749U 88001B   22142.84129479  .00000554  00000+0  64461-4 0  9999
2 18749  82.5161  57.4837 0019772 133.4235 292.5129 14.83381276836285
COSMOS 1933             
1 18958U 88020A   22143.50393034  .00002099  00000+0  14767-3 0  9995
2 18958  82.5281 164.5075 0009436 269.3266  90.6879 15.04562949841055
SL-3 R/B                
1 19046U 88032B   22143.50126784  .00002587  00000+0  19070-3 0  9997
2 19046  97.3908 143.5573 0035666 326.5561  33.3413 15.03657990842860
SL-16 R/B               
1 19120U 88039B   22143.36120745 -.00000188  00000+0 -66397-4 0  9994
2 19120  71.0131 118.9866 0023921 302.9177  56.9646 14.19245442761661
COSMOS 1953             
1 19210U 88050A   22143.31333918  .00005095  00000+0  33604-3 0  9994
2 19210  82.5156  85.2436 0011115 229.7252 130.3005 15.07231009827779
SL-8 R/B                
1 19257U 88053B   22143.48895410  .00000237  00000+0  87665-4 0  9996
2 19257  74.0463 144.5038 0021521 306.6324 168.8072 14.37599075777317
COSMOS 1975             
1 19573U 88093A   22143.47015358  .00004193  00000+0  28433-3 0  9997
2 19573  82.5226  40.9061 0012396 279.7015  80.2812 15.06147417809525
SL-14 R/B               
1 19574U 88093B   22143.59348968  .00000570  00000+0  66275-4 0  9999
2 19574  82.5324 260.6083 0020177 298.6295  71.7931 14.83493373795403
SL-16 R/B               
1 19650U 88102B   22143.52354924  .00000179  00000+0  11533-3 0  9998
2 19650  70.9984 187.2645 0015792 314.7223  45.2613 14.15826740730671
INTERCOSMOS 24          
1 20261U 89080A   22143.43738347  .00000569  00000+0  17169-3 0  9993
2 20261  82.6006 283.9408 1200678 260.8996  85.4642 12.56350716492519
SL-14 R/B               
1 20262U 89080C   22143.51477711  .00000581  00000+0  16654-3 0  9990
2 20262  82.5934 342.2788 1237290 109.4359 264.4435 12.49065482487002
DELTA 2 R/B(1)          
1 20303U 89085B   22143.59333125  .00019270  00000+0  49947-3 0  9995
2 20303  35.6380 245.9513 0080637 347.9870  11.8938 15.34831436776633
DELTA 1 R/B             
1 20323U 89089B   22143.55751603  .00000424  00000+0  11832-3 0  9995
2 20323  97.0819 189.2563 0071894 171.5943 188.6477 14.48511777694936
ARIANE 40 R/B           
1 20443U 90005H   22143.44274758  .00000317  00000+0  11879-3 0  9999
2 20443  98.4844 211.5142 0011142  46.2121 313.9986 14.38223824693445
DELTA 2 R/B(1)          
1 20453U 90008B   22143.43154673  .00012959  00000+0  67994-3 0  9999
2 20453  35.6234  51.7373 0265473  80.5465 282.5152 14.89520027716175
COSMOS 2058             
1 20465U 90010A   22143.50884635  .00002453  00000+0  20085-3 0  9999
2 20465  82.4872 314.6319 0014759 349.1675  10.9228 14.98835518733892
SL-14 R/B               
1 20466U 90010B   22143.43193054  .00000487  00000+0  58891-4 0  9992
2 20466  82.5008 126.9800 0020476 176.9725 183.1617 14.81534660723103
SL-14 R/B               
1 20511U 90018B   22143.32498840  .00000541  00000+0  68103-4 0  9998
2 20511  82.5239  76.6105 0016668 330.8767 151.5291 14.80189297717374
HST                     
1 20580U 90037B   22143.27077713  .00003795  00000+0  21385-3 0  9995
2 20580  28.4706 335.6581 0002822 119.4849  48.8914 15.10488920562404
SL-16 R/B               
1 20625U 90046B   22143.54441438  .00000344  00000+0  20325-3 0  9994
2 20625  70.9991 328.2090 0016253 253.2335 106.7004 14.14693940652334
COSMOS 2084             
1 20663U 90055A   22143.25579729  .00002206  00000+0  20427-3 0  9991
2 20663  62.7940 333.9776 0114921  47.3198 313.7507 14.92815589728538
SL-6 R/B(2)             
1 20666U 90055D   22143.58880345  .00002444  00000+0  21582-3 0  9996
2 20666  62.7846 247.4501 0128565  70.0002 291.4882 14.93131993730540
SL-8 R/B                
1 20775U 90078B   22143.08829717  .00013827  00000+0  65002-3 0  9995
2 20775  82.9260   3.9944 0553409 165.9908 195.7382 14.39457132606874
SL-8 R/B                
1 21088U 91006B   22143.42779946 -.00000004  00000+0 -18827-4 0  9990
2 21088  82.9400 121.0752 0021708 320.4248 150.6981 13.77196440573246
OKEAN-3                 
1 21397U 91039A   22143.30825878  .00002380  00000+0  22243-3 0  9995
2 21397  82.5232 226.4707 0016620 334.3127  25.7266 14.93649259657426
COSMOS 2151             
1 21422U 91042A   22143.52165561  .00001602  00000+0  15289-3 0  9996
2 21422  82.4986 331.5183 0015085  41.5816 318.6548 14.92634969655967
SL-14 R/B               
1 21423U 91042B   22143.29865840  .00000511  00000+0  64427-4 0  9995
2 21423  82.4946  78.0995 0018997 108.2547 252.0736 14.79934391647907
ERS-1                   
1 21574U 91050A   22143.50703968  .00000278  00000+0  10673-3 0  9990
2 21574  98.6960 112.0336 0032830 354.4517   5.6301 14.37899686616436
ARIANE 40 R/B           
1 21610U 91050F   22143.07032326  .00000424  00000+0  14508-3 0  9990
2 21610  98.3815 213.0723 0002120 319.7895 103.1193 14.41056693619172
INTERCOSMOS 25          
1 21819U 91086A   22143.47885032  .00001497  00000+0  30049-3 0  9993
2 21819  82.5823  63.6426 1514505 209.1547 141.6086 12.05700078329221
SL-8 R/B                
1 21876U 92008B   22143.50819618  .00000067  00000+0  52811-4 0  9996
2 21876  82.9291 218.3567 0035724  47.4548 323.8710 13.75699649518818
SL-8 R/B                
1 21938U 92020B   22142.85607734  .00000010  00000+0 -49069-5 0  9991
2 21938  82.9285 103.6023 0028467 205.9739 213.7937 13.75302719510495
COSMOS 2219             
1 22219U 92076A   22143.40598493 -.00000257  00000+0 -11080-3 0  9992
2 22219  71.0615  35.0354 0017486 165.7339 194.4281 14.13688912522436
SL-16 R/B               
1 22220U 92076B   22143.56857164  .00000280  00000+0  16439-3 0  9991
2 22220  71.0009 227.2455 0011334  40.6142  56.3977 14.16497403525528
COSMOS 2221             
1 22236U 92080A   22143.52571137  .00001562  00000+0  16537-3 0  9995
2 22236  82.5061 157.2757 0017658 136.7959 223.4648 14.88442596574129
SL-16 R/B               
1 22285U 92093B   22143.42830403  .00000060  00000+0  55655-4 0  9993
2 22285  71.0241  33.5049 0006507 264.8882  95.1498 14.15088989517020
COSMOS 2228             
1 22286U 92094A   22143.30455960  .00001823  00000+0  19218-3 0  9995
2 22286  82.5182 114.5612 0019206 258.5665 101.3395 14.88696671569281
SL-16 R/B               
1 22566U 93016B   22143.56709767 -.00000276  00000+0 -11782-3 0  9997
2 22566  71.0083 245.6251 0012799 272.3128  87.6529 14.15002253506078
COSMOS 2242             
1 22626U 93024A   22143.08505830  .00001659  00000+0  17546-3 0  9993
2 22626  82.5194 143.1978 0017126 259.6807 100.2480 14.88523228573638
SL-16 R/B               
1 22803U 93059B   22143.49217476  .00000220  00000+0  13352-3 0  9993
2 22803  70.9919  53.4173 0016724 169.6501 190.4970 14.16863100483165
ARIANE 40 R/B           
1 22830U 93061H   22143.14829093  .00000249  00000+0  11043-3 0  9998
2 22830  98.6648 206.0010 0011876  58.1610 302.0727 14.31550773495646
COSMOS 2278             
1 23087U 94023A   22143.49507644 -.00000263  00000+0 -11390-3 0  9998
2 23087  71.0533 193.9435 0010064 330.6143  29.4412 14.13865836448841
